Regional Weather Roundup
Issued by NWS

Home | Current Version | Previous Version | Text Only | Print | Product List | Glossary Off
Versions: 1 2 3 4 5 6 7 8 9 10 11 12 13 14 15 16 17 18 19 20 21 22 23 24 25 26 27 28 29 30 31 32 33 34 35 36 37 38 39 40 41 42 43 44 45 46 47 48 49 50

857
ASUS43 KBIS 270410
RWRND

NORTH DAKOTA REGIONAL WEATHER ROUNDUP
NATIONAL WEATHER SERVICE BISMARCK ND
1100 PM CDT TUE JUL 26 2016

NOTE: "FAIR" INDICATES FEW OR NO CLOUDS BELOW 12,000 FEET WITH NO
SIGNIFICANT WEATHER AND/OR OBSTRUCTIONS TO VISIBILITY.


NDZ001>003-009>011-017-270500-
NORTHWEST NORTH DAKOTA

CITY           SKY/WX    TMP DP  RH WIND       PRES   REMARKS
WILLISTON      MOCLDY    70  58  65 NE7       30.09R
MINOT          CLOUDY    69  58  67 N3        30.06R
MINOT AFB      CLOUDY    70  59  68 NW7       30.06R
$$

NDZ018>021-031>035-040>046-270500-
SOUTHWEST NORTH DAKOTA

CITY           SKY/WX    TMP DP  RH WIND       PRES   REMARKS
BISMARCK       CLOUDY    70  63  78 N10       30.04R
DICKINSON      CLEAR     61  57  87 NE8       30.07R
GARRISON         N/A     67  62  84 N5        30.06S
HETTINGER ARPT CLEAR     67  59  75 N9        30.07F
$$

NDZ004>008-012>016-024-026-027-054-270500-
NORTHEAST NORTH DAKOTA

CITY           SKY/WX    TMP DP  RH WIND       PRES   REMARKS
GRAND FORKS    CLOUDY    72  59  63 N14       30.00R
GRND FRKS AFB  CLOUDY    71  59  66 N14       30.01R
DEVILS LAKE    CLOUDY    66  64  93 N6        30.06R
$$

NDZ022-023-025-028>030-036>039-047>053-270500-
SOUTHEAST NORTH DAKOTA

CITY           SKY/WX    TMP DP  RH WIND       PRES   REMARKS
FARGO          LGT RAIN  69  66  90 N14       29.97S
JAMESTOWN      LGT RAIN  64  61  90 NE9       30.02R
$$





USA.gov is the U.S. government's official web portal to all federal, state and local government web resources and services.